Regional Weather Roundup
Issued by NWS

Home | Current Version | Previous Version | Text Only | Print | Product List | Glossary On
Versions: 1 2 3 4 5 6 7 8 9 10 11 12 13 14 15 16 17 18 19 20 21 22 23 24 25 26 27
000
ASPQ40 PGUM 291312
RWRPQ
WEATHER ROUNDUP FOR THE MARIANAS AND MICRONESIA
NATIONAL WEATHER SERVICE TIYAN GU
1100 PM CHST MON MAY 29 2017

GUZ001>004-291400-
MARIANA ISLANDS-

CITY           SKY/WX    TMP DP  RH WIND       PRES   REMARKS
GUAM AIRPORT   MOCLDY    82  77  83 E8        29.92R HX  91
ANDERSEN AFB   MOCLDY    81  75  83 E9        29.93R
ROTA AIRPORT   NOT AVBL
TINIAN AP      NOT AVBL
SAIPAN AP      PTCLDY    82  77  83 CALM      29.91R HX  91

$$

PMZ161-291400-
REPUBLIC OF PALAU-

CITY           SKY/WX    TMP DP  RH WIND       PRES   REMARKS
KOROR AP       MOCLDY    82  77  83 SE7       29.85R HX  91
KOROR WSO      CLOUDY    82  77  83 SE12      29.85R HX  91

$$

PMZ171>174-291400-
FEDERATED STATES OF MICRONESIA-

CITY           SKY/WX    TMP DP  RH WIND       PRES   REMARKS
YAP AIRPORT    MOCLDY    81  77  89 VRB2      29.87R
CHUUK AP       CLOUDY    82  77  83 VRB6      29.82F HX  91
POHNPEI AP     NOT AVBL
POHNPEI WSO    CLOUDY    84  77  79 NE9       29.85F HX  94
KOSRAE AP      NOT AVBL

$$

PMZ181-291400-
REPUBLIC OF THE MARSHALL ISLANDS-

CITY           SKY/WX    TMP DP  RH WIND       PRES   REMARKS
KWAJALEIN AP   PTCLDY    81  77  89 SE13      29.83F
MAJURO AP      NOT AVBL
MAJURO WSO     LGT RAIN  81  77  89 SE15      29.82F

$$





USA.gov is the U.S. government's official web portal to all federal, state and local government web resources and services.